Theta_e
286 287 286 285 285 284 282 281 280 280 279 279 279 278 277 277 277 276 276 276 276 275 275 275 275 275 274 274 274 274 273 273 269 273 275 275 275 275 276 276 276 276 276
287 287 285 285 284 283 282 281 280 280 279 279 278 277 277 276 276 276 275 275 273 273 274 273 272 274 272 272 272 271 271 272 270 268 272 272 272 273 274 273 275 276 276
286 285 284 283 283 283 282 280 279 279 278 277 277 277 276 276 275 275 275 274 273 274 273 272 272 271 271 271 270 270 270 271 271 269 269 271 272 273 273 274 274 275 277
285 284 284 283 283 283 282 280 279 278 277 277 277 276 275 275 274 274 274 273 273 273 273 272 272 271 271 271 270 270 270 268 269 269 269 269 271 273 274 273 273 276 276
286 284 284 284 283 282 279 279 278 278 277 276 275 274 274 274 274 274 274 272 271 271 272 272 272 272 273 273 270 269 269 268 268 268 269 270 271 273 273 274 273 273 274
285 284 284 282 281 280 278 278 277 276 275 275 274 273 272 274 278 278 275 272 272 271 271 271 272 272 273 275 276 277 276 272 271 271 272 272 272 272 274 274 273 272 270
284 284 282 281 279 278 277 276 275 275 274 273 272 272 271 272 279 280 277 273 272 272 272 272 272 272 272 272 274 276 277 278 278 275 273 273 273 274 274 273 273 272 271
284 283 280 279 278 276 275 275 275 274 273 273 271 272 271 272 280 281 278 274 273 272 272 272 271 272 273 273 273 272 273 274 275 276 275 275 276 276 276 276 275 274 275
281 281 280 279 277 275 275 275 274 273 273 272 272 271 270 271 281 281 279 273 273 272 273 273 272 272 274 276 274 272 273 274 278 278 278 279 279 279 278 274 270 269 268
279 279 278 278 277 275 275 274 274 273 273 272 270 271 271 270 280 280 278 272 270 271 272 273 275 273 276 277 273 273 272 273 272 272 274 271 273 271 274 272 270 267 268
276 274 273 274 274 273 273 273 272 272 271 271 269 269 270 269 275 280 280 272 270 269 270 270 273 275 276 277 278 273 271 273 273 267 267 267 268 269 270 271 272 270 268
273 272 272 272 273 273 270 270 270 270 269 268 267 267 269 269 271 278 279 276 275 268 269 272 272 274 276 276 275 274 275 274 264 264 264 265 266 267 269 271 272 272 272
273 273 272 270 271 271 270 269 268 269 269 267 267 267 267 268 269 277 279 279 277 271 271 273 274 273 273 271 271 272 270 265 263 262 263 265 267 269 270 269 271 271 271
273 272 271 270 269 269 269 269 268 268 268 268 268 267 267 267 269 273 274 275 276 274 272 266 268 268 268 268 266 267 266 265 265 264 264 266 267 267 266 268 268 268 268
273 271 270 270 268 268 269 269 269 270 271 269 269 269 268 267 269 273 271 268 268 269 260 258 259 262 262 263 263 263 264 264 264 264 264 264 265 266 266 268 269 268 266
272 270 269 269 268 268 268 267 274 273 275 276 275 272 271 273 274 275 275 275 275 272 256 254 257 260 260 261 261 261 262 263 263 264 263 263 264 264 264 266 268 267 265
274 272 269 269 267 267 266 266 266 272 275 277 276 275 274 274 276 277 277 277 275 267 254 254 255 257 258 259 259 260 260 261 263 262 263 262 263 263 264 265 267 266 265
273 273 270 268 267 267 267 267 268 268 269 271 276 274 276 277 278 278 276 273 264 259 253 251 252 253 255 257 257 258 258 259 260 261 261 261 262 263 263 265 265 264 264
272 271 269 267 267 267 267 268 268 269 270 270 271 274 276 278 277 276 272 261 258 256 252 252 251 253 254 254 254 254 254 256 258 258 259 260 262 262 264 265 265 265 265
273 272 268 267 266 266 267 268 269 269 269 269 269 270 272 272 267 261 258 257 257 254 255 252 252 250 250 250 249 250 253 255 256 258 259 261 262 263 264 264 264 264 264
272 270 267 267 266 266 267 267 268 268 268 268 267 267 270 265 261 258 256 256 255 254 254 252 250 249 248 248 247 248 251 254 256 258 259 261 262 264 264 265 264 264 264
269 266 266 265 266 266 266 267 266 266 266 263 264 269 270 262 259 257 257 255 254 253 252 250 249 248 249 247 247 249 252 253 255 258 259 260 263 264 264 264 264 264 263
266 265 265 265 266 266 265 265 265 264 263 263 265 266 260 259 258 257 256 253 253 253 251 249 249 250 249 248 248 251 251 253 255 257 258 260 264 264 263 262 263 263 263
264 264 263 264 264 264 264 263 263 263 263 263 262 259 258 257 256 255 254 253 252 250 248 248 249 248 249 248 248 250 252 253 255 258 260 264 264 264 263 262 262 263 263
262 262 262 262 262 261 261 261 261 261 260 260 258 257 256 255 254 253 252 252 251 250 250 249 248 248 248 248 249 249 252 255 256 261 265 264 264 263 262 262 262 262 263
260 260 260 260 260 260 259 258 258 258 258 257 256 255 255 255 254 253 252 251 251 250 249 248 247 247 248 249 250 253 257 262 263 268 265 265 264 262 262 261 261 262 262
Wind_Speed
15 16 15 14 14 12 12 12 13 13 14 15 15 14 13 11 9 8 7 7 7 8 5 5 4 4 3 2 3 2 4 4 9 8 3 9 12 13 12 13 13 14 13
16 15 16 14 14 14 14 14 14 15 14 15 15 15 14 12 10 10 10 8 9 8 8 6 5 4 5 5 4 5 6 5 5 17 10 10 13 14 15 16 13 12 14
11 14 13 14 15 18 16 15 15 15 14 14 16 16 15 13 12 9 9 9 8 8 9 8 7 7 6 5 5 5 5 5 6 9 16 10 12 12 16 15 15 16 13
14 15 17 17 19 17 15 15 16 16 16 15 15 15 14 13 12 12 11 10 9 8 9 8 8 8 8 7 6 6 6 5 7 10 13 15 13 13 13 15 15 12 13
17 17 20 17 14 13 14 15 15 15 15 16 15 13 13 12 11 13 12 11 10 9 7 7 7 9 12 10 6 7 7 7 7 10 13 15 15 13 14 14 17 17 15
16 19 16 13 15 16 15 16 15 14 14 14 14 15 15 10 21 23 15 11 10 9 8 8 8 9 11 13 14 15 12 8 11 10 11 15 21 17 14 15 17 17 23
17 14 14 15 16 16 16 16 17 17 15 14 14 14 14 12 24 24 21 11 10 8 8 7 8 6 7 7 12 14 16 20 22 16 18 17 22 18 20 21 20 20 22
12 12 12 15 14 14 15 16 16 16 17 16 14 14 13 11 26 27 25 11 9 10 8 9 8 6 7 8 9 9 12 13 14 13 15 17 19 17 18 19 22 22 21
11 14 14 16 16 16 17 17 15 14 14 15 13 13 13 11 25 25 20 11 10 9 9 8 7 7 11 13 9 9 11 13 14 22 28 32 32 33 32 19 17 17 21
6 5 7 9 12 15 14 14 12 12 12 10 12 11 12 12 25 24 18 8 9 8 7 8 10 12 14 14 8 9 10 10 10 13 11 14 20 19 28 17 13 16 16
4 5 6 9 10 11 11 10 11 11 11 11 11 10 12 12 13 23 23 9 8 7 6 5 6 11 12 15 16 5 6 13 12 7 10 10 12 13 12 12 14 14 17
5 6 6 7 8 9 12 11 12 12 12 11 11 9 7 9 11 21 22 18 16 7 7 5 6 10 11 14 12 14 15 14 4 7 9 11 11 11 11 13 16 17 17
4 7 7 7 6 10 12 11 10 12 11 11 10 11 10 9 9 22 24 22 21 10 7 10 10 4 7 8 11 14 8 3 6 8 9 11 12 12 16 17 17 19 21
7 7 9 10 10 11 9 9 9 11 11 12 12 10 10 10 10 10 10 11 14 9 9 4 2 1 2 4 5 7 6 5 7 9 10 12 13 13 13 14 15 15 16
8 8 9 7 13 11 10 12 13 14 17 17 14 13 15 12 13 18 14 6 3 8 7 3 2 2 1 3 3 6 6 6 7 8 10 12 13 13 14 14 15 16 17
10 8 8 9 10 8 8 7 20 17 22 23 22 16 10 12 23 26 24 20 17 15 3 2 1 2 2 4 4 6 6 6 7 9 10 11 13 14 15 15 15 15 17
12 10 8 9 8 10 11 12 10 13 23 25 22 21 21 21 31 27 25 23 18 10 3 1 2 1 2 5 5 5 6 6 9 9 10 12 13 13 17 15 16 15 17
14 15 10 10 11 11 10 10 10 14 14 11 21 21 27 31 27 24 23 18 8 4 3 3 3 2 3 5 5 4 6 7 8 10 11 12 12 13 15 16 16 18 18
12 10 10 8 9 10 10 11 11 12 11 13 14 20 25 29 26 25 21 7 6 4 3 3 3 2 4 6 5 4 6 7 9 11 11 12 13 13 15 16 17 23 23
13 14 11 9 10 11 10 11 12 12 14 13 12 14 14 18 10 8 6 6 5 4 4 3 3 2 5 6 3 5 5 6 9 10 11 12 12 13 15 18 18 19 18
8 8 13 9 10 10 11 12 12 12 13 12 13 11 16 12 12 11 8 6 5 4 4 4 2 1 5 5 5 4 4 7 9 11 11 12 13 14 15 17 18 18 18
6 7 8 8 8 10 10 10 11 12 12 13 12 15 24 9 9 8 7 6 5 4 3 3 1 4 6 6 4 2 7 8 9 10 12 12 13 14 15 17 18 18 18
6 8 7 7 8 11 10 10 11 11 12 13 13 12 10 9 8 8 7 5 4 3 2 2 3 4 5 6 3 5 7 9 10 11 12 14 13 14 15 17 19 18 18
6 7 8 7 7 8 9 10 10 13 13 12 11 10 9 8 8 8 6 5 4 2 1 2 3 6 7 6 4 6 8 9 9 11 16 14 13 16 16 17 18 22 19
7 7 7 8 8 9 10 10 10 11 11 10 9 8 9 8 7 6 4 4 3 1 2 2 4 6 9 11 10 11 13 17 13 16 11 12 14 17 17 16 19 19 22
8 8 7 7 8 8 9 10 10 10 10 9 8 8 8 7 6 5 4 3 2 1 3 3 4 9 11 10 11 13 16 17 15 19 8 11 11 13 14 18 23 17 21
Wind_Direction
195 196 194 201 194 191 183 178 174 165 168 173 170 165 169 172 171 166 169 175 152 133 128 138 157 152 172 185 244 250 256 252 275 285 335 317 315 309 310 305 302 300 296
200 197 202 196 191 188 191 182 169 171 171 170 168 168 170 170 171 173 169 174 155 152 154 153 169 184 200 204 213 246 255 259 277 294 304 304 309 308 302 304 301 296 292
199 196 196 196 195 202 193 178 171 167 169 167 172 172 170 170 170 174 169 173 165 160 161 171 176 182 209 214 212 233 251 271 284 287 295 304 300 305 307 299 293 289 281
196 200 201 199 201 200 187 178 175 173 169 173 176 169 171 166 168 171 173 172 162 165 171 177 185 199 210 207 208 231 245 248 266 274 285 295 298 300 290 297 293 288 292
202 204 208 201 194 193 181 174 172 172 174 173 166 170 167 167 171 175 180 169 160 160 174 190 195 209 216 206 202 215 231 240 247 266 278 288 292 295 295 300 292 294 288
202 210 204 188 179 185 177 172 169 169 167 169 175 170 168 174 184 186 171 160 164 172 183 197 210 206 225 234 247 254 243 239 254 259 273 284 286 289 291 292 292 294 295
205 203 189 179 182 180 173 169 173 174 165 173 172 169 172 174 186 185 175 163 163 173 189 202 209 211 209 226 245 259 270 277 275 280 279 280 289 292 294 289 281 279 276
202 191 179 182 182 169 173 178 175 170 172 173 176 177 173 178 185 183 176 165 162 174 190 206 212 221 228 235 253 248 255 253 257 265 269 280 278 280 274 281 282 272 272
193 193 189 182 178 172 179 181 174 168 175 175 173 172 171 180 187 184 174 161 164 182 200 207 210 227 236 253 260 261 266 266 273 282 286 288 291 296 296 297 286 291 288
196 185 165 177 176 177 177 176 172 173 170 171 162 171 170 175 188 187 173 161 172 176 196 207 212 229 241 257 264 262 272 289 292 282 285 297 294 289 289 280 283 280 279
112 122 146 162 167 166 164 165 160 163 157 170 160 159 160 174 190 188 184 178 171 181 183 205 203 237 259 268 276 290 279 288 301 319 295 286 284 281 278 271 270 272 279
122 127 148 155 154 159 157 155 157 161 162 162 156 152 166 173 180 189 195 184 185 170 190 193 205 240 260 290 295 298 294 313 325 296 289 285 283 284 284 281 277 272 267
154 157 160 139 163 162 162 160 162 166 169 171 175 167 171 174 180 192 194 191 189 167 174 184 207 254 293 306 298 301 319 302 281 283 283 285 285 289 293 285 277 280 278
220 189 157 164 174 169 162 170 177 181 183 176 176 182 173 169 172 184 186 184 190 162 155 108 95 36 290 290 311 307 291 280 283 283 285 290 292 293 293 287 296 295 289
217 200 176 197 180 184 193 184 191 197 192 179 182 171 169 182 185 177 163 142 136 137 104 65 65 60 333 291 278 275 277 288 290 289 292 296 297 297 297 293 290 296 291
214 208 206 186 185 194 191 189 211 207 210 205 189 175 170 178 173 171 164 163 173 149 60 117 128 131 246 286 278 287 290 298 298 298 295 294 293 295 296 294 290 296 293
232 218 200 191 197 190 185 176 177 211 201 195 189 176 164 161 163 169 166 161 139 129 101 111 162 184 259 267 268 268 290 298 297 290 288 289 289 290 301 292 301 299 295
231 219 204 196 187 184 189 187 174 171 182 183 181 166 159 160 166 158 150 138 127 113 119 154 203 162 257 261 270 289 290 296 299 296 289 287 288 295 296 302 303 303 299
227 220 198 190 189 185 176 175 176 175 178 155 151 156 156 156 159 146 135 133 152 149 135 165 194 196 260 259 260 277 270 290 294 290 283 286 291 301 299 305 302 304 301
237 220 189 179 175 176 176 174 173 169 163 163 154 155 151 153 139 124 109 134 138 146 147 176 206 173 255 258 262 258 282 297 292 287 289 293 296 293 310 308 306 307 305
226 196 175 175 174 174 170 172 168 161 158 158 146 152 155 139 139 135 143 149 153 160 159 186 175 217 256 259 252 248 276 285 286 286 288 293 298 311 315 308 306 305 305
176 164 167 165 159 163 165 160 155 155 154 138 145 159 140 130 130 133 141 149 157 154 167 153 202 236 256 252 237 272 276 280 284 288 295 296 296 319 316 311 309 310 309
140 146 146 146 155 156 155 152 153 155 145 147 149 146 133 135 140 141 144 143 147 163 160 147 225 267 257 249 232 243 263 273 279 288 292 298 310 321 318 313 313 313 315
102 116 124 124 130 137 141 140 141 143 137 137 130 131 133 138 137 135 139 141 151 165 162 231 236 253 272 273 252 252 252 266 271 283 289 292 314 319 317 315 314 316 315
86 97 108 116 120 122 123 127 130 128 125 122 125 124 122 124 124 124 128 136 147 165 251 255 249 263 272 275 275 274 276 284 283 291 290 307 309 314 316 316 317 319 320
82 88 92 101 111 117 123 122 119 120 118 118 118 120 128 130 127 129 141 148 165 232 269 259 273 277 277 277 276 281 289 293 302 314 311 320 313 318 320 321 324 324 325